Regional Weather Roundup
Issued by NWS Upton, NY

Current Version | Previous Version | Graphics & Text | Print | Product List | Glossary Off
Versions: 1 2 3 4 5 6 7 8 9 10 11 12 13 14 15 16 17 18 19 20 21 22 23 24 25 26 27 28 29 30 31 32 33 34 35 36 37 38 39 40 41 42 43 44 45 46 47 48 49 50

000
ASUS41 KOKX 100708
RWROKX

REGIONAL WEATHER ROUNDUP
NATIONAL WEATHER SERVICE NEW YORK NY
200 AM EST SAT DEC 10 2016

NOTE: "FAIR" INDICATES FEW OR NO CLOUDS BELOW 12,000 FEET WITH NO
SIGNIFICANT WEATHER AND/OR OBSTRUCTIONS TO VISIBILITY.

NYZ071-072-176-178-NJZ106-104-100800-
NEW YORK CITY METRO AREA

CITY           SKY/WX    TMP DP  RH WIND       PRES   REMARKS
Central Park   CLEAR     30  14  51 W9        30.33R WCI  22
Wall St Helipt SUNNY     32  20  61 W7        30.33R WCI  26
Bronx Bot Gard NOT AVBL
LaGuardia APRT CLEAR     32  15  49 NW14      30.31R WCI  22
Kennedy INTL   PTCLDY    31  13  47 NW13      30.33R WCI  21
Breezy Point     N/A    N/A N/A N/A W13G20      N/A
Newark/Liberty CLEAR     29  15  56 SW8       30.32R WCI  21
Teterboro      CLEAR     28  14  55 W5        30.31R WCI  23
$$

NYZ177-179-078>081-100800-
LONG ISLAND NEW YORK

CITY           SKY/WX    TMP DP  RH WIND       PRES   REMARKS
Jones Beach      N/A    N/A N/A N/A NW13G18     N/A
Matinecock PT    N/A     32 N/A N/A W21G28      N/A  WCI  20
Farmingdale    CLEAR     28  15  58 NW8       30.29R WCI  20
MacArthur/ISP  CLEAR     27  15  61 W6        30.28R WCI  20
Shirley        CLEAR     26  14  60 NW3       30.29R
Westhampton    NOT AVBL
Southampton    NOT AVBL
Bridgehampton  NOT AVBL
East Hampton     N/A     27  12  51 NW9G20    30.26R WCI  18
Montauk          N/A     29  13  51 NW16G24   30.26R WCI  17
$$

NYZ052-065-067-100800-
HUDSON VALLEY

CITY           SKY/WX    TMP DP  RH WIND       PRES   REMARKS
White Plains   CLEAR     27  15  61 W10       30.26R WCI  17
Newburgh       CLEAR     21  18  86 W8        30.28R WCI  12
Montgomery     CLEAR     22  15  75 SW3       30.27R
Poughkeepsie   CLEAR     19  13  77 CALM      30.29R
Albany         PTCLDY    18  11  74 CALM      30.28R
$$

NJZ001-105-106-008-010-013-015-019>022-104-100800-
NEW JERSEY

CITY           SKY/WX    TMP DP  RH WIND       PRES   REMARKS
Newark/Liberty CLEAR     29  15  56 SW8       30.32R WCI  21
Teterboro      CLEAR     28  14  55 W5        30.31R WCI  23
Caldwell       CLEAR     26  15  63 VRB3      30.32R
Somerville     CLEAR     27  15  61 CALM      30.32R
Linden           N/A    N/A N/A N/A W6        30.34R
Sussex         CLEAR     21  14  74 S3        30.28R
Andover          N/A     21  15  78 VRB3      30.30R
Trenton        PTCLDY    29  21  72 W6        30.33R WCI  23
Millville      CLEAR     27  20  75 W6        30.39R WCI  20
Atlantic City  CLEAR     28  18  66 W9        30.37R WCI  19
Wrightstown    CLEAR     28  20  72 W7        30.32R WCI  21
Toms River     CLEAR     23  19  85 SW6       30.36R WCI  16
Belmar         CLEAR     25  21  85 W7        30.34R WCI  17
$$

PAZ047>061-062-071-100800-
EASTERN PENNSYLVANIA

CITY           SKY/WX    TMP DP  RH WIND       PRES   REMARKS
Philadelphia   PTCLDY    30  18  60 W12       30.39R WCI  20
Allentown      CLOUDY    29  22  75 W9        30.33R WCI  20
Scranton       CLOUDY    27  15  61 W6        30.28R WCI  20
$$

CTZ002-004>006-009-010-012-RIZ004-006-007-MAZ004-011-015-100800-
SOUTHERN NEW ENGLAND
 IN CT

CITY           SKY/WX    TMP DP  RH WIND       PRES   REMARKS
Bradley INTL   CLEAR     21  10  62 W7        30.25R WCI  12
Hartford       CLEAR     25  11  55 NW7       30.26R WCI  17
Danbury        CLEAR     22  12  65 NW3       30.27R
Wtrbury/Oxford CLEAR     21   9  58 NW3       30.24R
Bridgeport     CLEAR     26  13  57 W6        30.28R WCI  19
Meriden        CLEAR     26   9  48 N5        30.26R WCI  20
New Haven      MOCLDY    26  13  57 NW8       30.28R WCI  18
Chester          N/A     25   9  50 NW7       30.23R WCI  17
Groton         CLEAR     28  11  48 NW8       30.24R WCI  20
Wilimantic     PTCLDY    25  10  53 NW7       30.24R WCI  17

 IN RI

CITY           SKY/WX    TMP DP  RH WIND       PRES   REMARKS
Providence     CLEAR     23   7  50 NW8       30.22S WCI  14
Block Island   CLEAR     27  12  53 NW14G24   30.23R WCI  16
Westerly       CLEAR     26   9  48 NW6       30.23S WCI  19
 IN MA

CITY           SKY/WX    TMP DP  RH WIND       PRES   REMARKS
Boston         CLEAR     24   8  50 W15G24    30.22R WCI  11
Worcester      CLEAR     18   3  52 NW9       30.15R WCI   7
Westfield      PTCLDY    21  12  68 N7        30.23R WCI  12
Provincetown   MOCLDY    27  13  55 NW23G31   30.18R WCI  12
Nantucket      PTCLDY    28  11  48 NW14G23   30.18R WCI  17
$$

ANZ330-335-338-340-345-350-353-355-100800-
COASTAL MARINE OBSERVATIONS


STATION/POSITION TIME  SKY/WX   TEMP    WIND        PRES    VSBY  WAVE
                                AIR SEA DIR/SP/G                  HT/PER
                 (UTC)          (F)     (DEG/KT/KT) (MB)    (MI)  (FT/S)
NY HARB ENTRANCE 0550            35 51  320/ 19/ 27 1025.0          3/ 4
20 S FIRE ISLAND 0650            34 52  320/ 23/ 27 1025.3          5/ 6
GREAT SOUTH BAY  0630            31 40                N/A
23 SSW MONTAUK P 0550            32 54  310/ 19/ 25 1023.5          5/ 5
15 E BARNEGAT LI 0630               51                N/A           5/ 6
HUDSON CANYON    0550            37 56              1024.7          8/ 7
KINGS POINT      0648            31 44              1026.0
EXECUTION ROCKS  0645            31     290/ 10/ 16   N/A
CENTRAL LI SOUND 0630            30 48  310/ 17/ 23   N/A           2/ 4
EASTERN LI SOUND NOT AVBL
ROBBINS REEF     0648            31     280/ 12/ 14 1026.9
$$


>>>>>>>>>>>>>>>>>>>>>>>>>>>> KEY <<<<<<<<<<<<<<<<<<<<<<<<<<<
>                                                          <
>     SKY/WX - Sky Condition/Present Weather               <
>     TMP    - Temperature in Fahrenheit                   <
>     DP     - Dew Point in Fahrenheit                     <
>     RH     - Relative Humidity in Percent                <
>     WIND   - Direction (from) and Speed in MPH           <
>     PRES   - Mean Sea Level Pressure (inches of Hg)      <
>     WCI    - Wind Chill Index                            <
>     VSB    - VISIBILITY IN MILES                         <
>     HX     - HEAT INDEX                                  <
>     TC     - TEMPERATURE IN CELSIUS                      <
>     VRB    - VARIABLE WIND DIRECTION                     <
>                                                          <
>>>>>>>>>>>>>>>>>>>>>>>>>>>> KEY <<<<<<<<<<<<<<<<<<<<<<<<<<<



USA.gov is the U.S. government's official web portal to all federal, state and local government web resources and services.